Flag for Ireland Weather past 2 weeks in Dublin, Ireland

36 °F


Feels Like: 25 °F
Forecast: N/A
Wind: 18 mph from West

Location: Dublin Airport

Current Time: Nov 27, 2015 at 11:42:44 PM

Latest Report: Nov 27, 2015 at 11:00 PM

Visibility: 10 mi

Pressure: 29.83 "Hg

Humidity: 87%

Dew point: 32 °F

Location of DublinLocation

Historic Weather in Dublin — Graph


Dublin temperature yesterday

Maximum temperature yesterday: 54 °F (at 12:00 PM)
Minimum temperature yesterday: 50 °F (at 12:00 AM)
Average temperature yesterday: 52 °F

Past Weeks' High & Low Weather Summary

High61 °F (Nov 15, 2:00 PM)100% (Nov 14, 8:30 AM)30.24 "Hg (Nov 14, 8:30 AM)
Low30 °F (Nov 22, 9:00 PM)67% (Nov 18, 3:00 PM)29.06 "Hg (Nov 17, 4:30 PM)
Average46 °F88%29.83 "Hg
* Reported Nov 12 10:00 PM — Nov 27 10:30 PM, Dublin, Weather by CustomWeather, © 2015

Note: Actual official high and low records may vary slightly from our data, if they occured in-between our weather recording intervals... More about our weather records


Dublin weather history for previous 24 hours

Time TempWeatherWind HumidityBarometerVisibility
10:30 PM
Fri, Nov 27
36 °FClear.18 mph87%29.83 "Hg10 mi
10:00 PM36 °FClear.18 mph87%29.83 "Hg10 mi
9:30 PM36 °FClear.15 mph87%29.83 "Hg10 mi
9:00 PM36 °FPassing clouds.21 mph87%29.83 "HgN/A
8:30 PM37 °FClear.17 mph81%29.83 "Hg10 mi
8:00 PM36 °FClear.14 mph93%29.83 "Hg10 mi
7:30 PM36 °FClear.18 mph87%29.80 "Hg10 mi
7:00 PM37 °FClear.21 mph81%29.80 "Hg10 mi
6:30 PM37 °FPassing clouds.17 mph87%29.80 "HgN/A
6:00 PM37 °FPassing clouds.18 mph87%29.77 "HgN/A
5:30 PM37 °FPassing clouds.22 mph87%29.77 "HgN/A
5:00 PM39 °FPartly cloudy.18 mph87%29.74 "HgN/A
4:30 PM39 °FPartly cloudy.18 mph87%29.71 "HgN/A
4:00 PM41 °FSprinkles. Broken clouds.26 mph81%29.71 "HgN/A
3:30 PM41 °FBroken clouds.24 mph87%29.65 "HgN/A
3:00 PM43 °FLight rain. Broken clouds.24 mph87%29.62 "HgN/A
2:30 PM45 °FLight rain. Broken clouds.21 mph93%29.56 "HgN/A
2:00 PM45 °FLight rain. Broken clouds.18 mph93%29.56 "HgN/A
1:30 PM45 °FLight rain. Broken clouds.21 mph93%29.59 "HgN/A
1:00 PM46 °FLight rain. Partly sunny.22 mph93%29.59 "Hg4 mi
12:30 PM46 °FLight rain. Broken clouds.15 mph93%29.59 "HgN/A
12:00 PM46 °FLight rain. Broken clouds.15 mph93%29.59 "Hg3 mi
11:30 AM48 °FLight rain. Broken clouds.30 mph87%29.59 "Hg4 mi
11:00 AM52 °FDrizzle. Broken clouds.21 mph94%29.56 "Hg4 mi
10:30 AM52 °FBroken clouds.21 mph88%29.56 "HgN/A
10:00 AM52 °FBroken clouds.24 mph82%29.59 "HgN/A
9:30 AM52 °FPartly sunny.22 mph82%29.59 "HgN/A
9:00 AM52 °FPartly sunny.22 mph82%29.62 "HgN/A
8:30 AM52 °FPartly sunny.22 mph82%29.65 "HgN/A
8:00 AM50 °FPassing clouds.17 mph88%29.65 "HgN/A
6:30 AM50 °FPartly cloudy.18 mph88%29.71 "HgN/A
6:00 AM50 °FPartly cloudy.20 mph88%29.74 "HgN/A
5:30 AM50 °FPartly cloudy.18 mph88%29.77 "HgN/A
5:00 AM50 °FPartly cloudy.17 mph88%29.77 "HgN/A
4:00 AM50 °FPartly cloudy.15 mph94%29.83 "Hg4 mi
3:30 AM50 °FPartly cloudy.15 mph94%29.86 "HgN/A
3:00 AM50 °FPartly cloudy.14 mph94%29.86 "HgN/A
2:30 AM50 °FPartly cloudy.15 mph94%29.89 "HgN/A
2:00 AM52 °FPartly cloudy.18 mph94%29.89 "HgN/A
1:30 AM52 °FPartly cloudy.20 mph88%29.92 "HgN/A
1:00 AM52 °FPartly cloudy.16 mph94%29.95 "HgN/A
12:30 AM52 °FPassing clouds.16 mph94%29.95 "HgN/A
12:00 AM52 °FPassing clouds.16 mph94%29.98 "HgN/A
11:30 PM
Thu, Nov 26
52 °FPassing clouds.16 mph94%29.98 "Hg6 mi
11:00 PM52 °FPassing clouds.15 mph94%30.01 "HgN/A
Weather by CustomWeather, © 2015

See weather overviewHow to use our weather pages